Weather History for Fort Myers, FL

Change the Weather History Date:

Saturday, December 29, 2012

  Actual Average Record
Temperature  
Mean Temperature 68 °F 65 °F  
Max Temperature 79 °F 75 °F 87 °F (1990)
Min Temperature 57 °F 54 °F 37 °F (2010)
Degree Days  
Heating Degree Days 0 3  
Month to date heating degree days 30 65  
Since 1 July heating degree days 45 83  
Cooling Degree Days 3 3  
Month to date cooling degree days 151 115  
Year to date cooling degree days 4364 3978  
Growing Degree Days 18 (Base 50)    
Moisture  
Dew Point 67 °F    
Average Humidity 86    
Maximum Humidity 93    
Minimum Humidity 73    
Precipitation  
Precipitation 0.00 in 0.05 in 0.88 in (1939)
Month to date precipitation 2.18 1.59  
Year to date precipitation 49.61 55.81  
Sea Level Pressure  
Sea Level Pressure 30.00 in    
Wind  
Wind Speed 11 mph (WSW)    
Max Wind Speed 18 mph    
Max Gust Speed 23 mph    
Visibility 10 miles    
Events      
T = Trace of Precipitation, MM = Missing Value Source: NWS Daily Summary

Daily Weather History Graph

Daily Weather History Graph

Search for Another Location

Airport:

Trip Planner

Search our weather history database for the weather conditions in past years. The results will help you decide how hot, cold, wet, or windy it might be!

Date:

Astronomy

Dec. 29, 2012 Rise Set
Actual Time 7:15 AM EST 5:44 PM EST
Civil Twilight 6:49 AM EST 6:09 PM EST
Nautical Twilight 6:20 AM EST 6:38 PM EST
Astronomical Twilight 5:52 AM EST 7:07 PM EST
Moon 7:06 PM EST (12/29) 7:55 AM EST (12/29)
Length of Visible Light 11h 20m
Length of Day
10h 29m
Full, 98% of the Moon is Illuminated
Dec 29
Full
Jan 4
Last Quarter
Jan 11
New
Jan 18
First Quarter
Jan 26
Full

Hourly Weather History & Observations

Time (EST) Temp. Dew Point Humidity Pressure Visibility Wind Dir Wind Speed Gust Speed Precip Events Conditions
12:53 AM 72.0 °F 69.1 °F 91% 29.95 in 10.0 mi SSE 5.8 mph - N/A   Clear
1:53 AM 71.1 °F 69.1 °F 93% 29.94 in 10.0 mi South 6.9 mph - N/A   Clear
2:53 AM 71.1 °F 69.1 °F 93% 29.94 in 10.0 mi South 5.8 mph - N/A   Mostly Cloudy
3:20 AM 71.6 °F 69.8 °F 94% 29.92 in 10.0 mi South 4.6 mph - N/A   Mostly Cloudy
3:30 AM 71.6 °F 69.8 °F 94% 29.92 in 10.0 mi South 5.8 mph - N/A   Overcast
3:53 AM 72.0 °F 70.0 °F 93% 29.93 in 10.0 mi South 8.1 mph - N/A   Overcast
4:38 AM 71.6 °F 69.8 °F 94% 29.92 in 10.0 mi South 8.1 mph - N/A   Overcast
4:44 AM 73.4 °F 69.8 °F 88% 29.92 in 10.0 mi South 9.2 mph 17.3 mph N/A   Overcast
4:53 AM 73.0 °F 71.1 °F 93% 29.92 in 10.0 mi South 9.2 mph - N/A   Overcast
5:04 AM 73.4 °F 71.6 °F 94% 29.92 in 10.0 mi South 9.2 mph - N/A   Overcast
5:24 AM 73.4 °F 71.6 °F 94% 29.93 in 10.0 mi SSW 11.5 mph - N/A   Overcast
5:53 AM 73.9 °F 72.0 °F 93% 29.96 in 10.0 mi SSW 8.1 mph - N/A   Overcast
7:53 AM 73.0 °F 72.0 °F 96% 30.00 in 7.0 mi SSW 10.4 mph 19.6 mph N/A   Overcast
8:13 AM 73.4 °F 71.6 °F 94% 29.98 in 8.0 mi South 11.5 mph - N/A   Scattered Clouds
8:53 AM 73.9 °F 71.1 °F 91% 30.01 in 10.0 mi SSW 11.5 mph - N/A   Clear
9:53 AM 75.9 °F 72.0 °F 87% 30.04 in 10.0 mi SW 10.4 mph 16.1 mph N/A   Mostly Cloudy
10:53 AM 77.0 °F 71.1 °F 82% 30.03 in 10.0 mi SW 12.7 mph - N/A   Mostly Cloudy
11:53 AM 77.0 °F 72.0 °F 84% 30.01 in 10.0 mi SW 13.8 mph 19.6 mph N/A   Mostly Cloudy
12:40 PM 77.0 °F 71.6 °F 83% 29.98 in 10.0 mi SW 11.5 mph - N/A   Mostly Cloudy
12:53 PM 78.1 °F 72.0 °F 81% 29.98 in 10.0 mi WSW 12.7 mph 19.6 mph N/A   Mostly Cloudy
1:53 PM 77.0 °F 71.1 °F 82% 29.96 in 10.0 mi WSW 13.8 mph - N/A   Overcast
2:53 PM 75.9 °F 69.1 °F 79% 29.96 in 10.0 mi West 13.8 mph - N/A   Overcast
3:11 PM 75.2 °F 69.8 °F 83% 29.95 in 10.0 mi WNW 11.5 mph - N/A   Overcast
3:53 PM 73.0 °F 64.0 °F 73% 29.97 in 10.0 mi WNW 12.7 mph - N/A   Overcast
4:28 PM 73.4 °F 64.4 °F 73% 29.96 in 10.0 mi NW 13.8 mph - N/A   Mostly Cloudy
4:53 PM 72.0 °F 64.0 °F 76% 29.98 in 10.0 mi NW 12.7 mph - N/A   Partly Cloudy
6:53 PM 66.0 °F 60.1 °F 81% 30.05 in 10.0 mi NW 9.2 mph - N/A   Partly Cloudy
7:08 PM 66.2 °F 60.8 °F 83% 30.05 in 10.0 mi NNW 11.5 mph - N/A   Mostly Cloudy
7:53 PM 64.0 °F 57.9 °F 80% 30.09 in 10.0 mi NNW 15.0 mph 20.7 mph N/A   Mostly Cloudy
8:30 PM 62.6 °F 55.4 °F 77% 30.10 in 10.0 mi NNW 11.5 mph - N/A   Scattered Clouds
8:53 PM 62.1 °F 55.0 °F 78% 30.11 in 10.0 mi NW 11.5 mph - N/A   Clear
9:53 PM 60.1 °F 53.1 °F 78% 30.14 in 10.0 mi NW 12.7 mph - N/A   Clear
10:53 PM 59.0 °F 52.0 °F 78% 30.15 in 10.0 mi NNW 11.5 mph - N/A   Clear
11:53 PM 57.0 °F 51.1 °F 81% 30.17 in 10.0 mi North 10.4 mph - N/A   Clear